FW5909 Weather Reports


time (UTC)temp
C
wind
direction
speed
KPH
gust
KPH
rain 1hr
cm
rain 24hr
cm
rain mn
cm
humidity
%
barometer
mb
20260505014551 13 148 1.6 9.7 0.00 0.00 0.00 65 1007.3
20260505014051 13 155 3.2 9.7 0.00 0.00 0.00 65 1007.3
20260505013544 13 150 3.2 9.7 0.00 0.00 0.00 63 1007.1
20260505013112 14 155 4.8 11.3 0.00 0.00 0.00 62 1007.2
20260505012549 14 147 4.8 11.3 0.00 0.00 0.00 60 1007.1
20260505012045 15 146 6.4 9.7 0.00 0.00 0.00 57 1007.0
20260505011554 15 135 0.0 1.6 0.00 0.00 0.00 54 1006.9
20260505011047 15 158 0.0 1.6 0.00 0.00 0.00 53 1006.9
20260505010544 15 173 0.0 1.6 0.00 0.00 0.00 52 1006.9
20260505005546 16 0 0.0 1.6 0.00 0.00 0.00 50 1006.6
20260505005048 16 0 0.0 4.8 0.00 0.00 0.00 50 1006.6
20260505004549 16 226 0.0 4.8 0.00 0.00 0.00 51 1006.5
20260505004044 16 201 0.0 1.6 0.00 0.00 0.00 52 1006.4
20260505003548 16 0 0.0 1.6 0.00 0.00 0.00 51 1006.4
20260505003053 16 0 0.0 1.6 0.00 0.00 0.00 50 1006.5
20260505002545 16 146 0.0 0.0 0.00 0.00 0.00 48 1006.4
20260505002044 16 0 0.0 0.0 0.00 0.00 0.00 48 1006.3
20260505001548 17 0 0.0 0.0 0.00 0.00 0.00 47 1006.3
20260505001044 17 0 0.0 1.6 0.00 0.00 0.00 45 1006.0
20260505000546 18 150 0.0 1.6 0.00 0.00 0.00 44 1005.9
20260505000105 18 0 0.0 3.2 0.00 0.00 0.00 42 1005.9
20260504235548 18 192 0.0 4.8 0.00 0.00 0.00 42 1005.9
20260504235048 19 221 1.6 9.7 0.00 0.00 0.00 41 1005.8
20260504234551 19 243 1.6 9.7 0.00 0.00 0.00 41 1005.7
20260504234044 19 231 1.6 9.7 0.00 0.00 0.00 40 1005.6
20260504233547 20 236 1.6 9.7 0.00 0.00 0.00 40 1005.7
20260504233058 20 258 4.8 12.9 0.00 0.00 0.00 39 1005.6
20260504232549 20 234 4.8 19.3 0.00 0.00 0.00 39 1005.4
20260504232048 20 263 6.4 19.3 0.00 0.00 0.00 38 1005.4
20260504231552 20 271 6.4 19.3 0.00 0.00 0.00 38 1005.2
20260504231046 21 240 9.7 17.7 0.00 0.00 0.00 38 1005.1
20260504230551 21 240 6.4 16.1 0.00 0.00 0.00 38 1004.9
20260504225549 21 276 6.4 16.1 0.00 0.00 0.00 37 1005.0
20260504225048 21 257 8.0 25.7 0.00 0.00 0.00 38 1004.8
20260504224553 21 243 8.0 25.7 0.00 0.00 0.00 37 1004.8
20260504224049 21 280 11.3 25.7 0.00 0.00 0.00 37 1004.9
20260504223549 21 239 4.8 19.3 0.00 0.00 0.00 38 1004.8
20260504223100 21 238 4.8 22.5 0.00 0.00 0.00 37 1004.8
20260504222549 21 268 12.9 22.5 0.00 0.00 0.00 37 1004.7
20260504222046 21 251 12.9 25.7 0.00 0.00 0.00 36 1004.6
20260504221550 21 243 14.5 25.7 0.00 0.00 0.00 37 1004.6
20260504221048 21 280 12.9 27.4 0.00 0.00 0.00 36 1004.5
20260504220545 21 266 11.3 27.4 0.00 0.00 0.00 36 1004.6
20260504220053 21 301 12.9 24.1 0.00 0.00 0.00 38 1004.5
20260504215545 21 288 11.3 24.1 0.00 0.00 0.00 36 1004.7
20260504215046 21 278 11.3 24.1 0.00 0.00 0.00 36 1004.7
20260504214607 21 269 9.7 30.6 0.00 0.00 0.00 36 1004.6
20260504214045 21 270 12.9 35.4 0.00 0.00 0.00 37 1004.6
20260504213549 21 293 19.3 35.4 0.00 0.00 0.00 36 1004.7
20260504213118 21 271 22.5 35.4 0.00 0.00 0.00 34 1004.6
20260504212549 21 238 12.9 24.1 0.00 0.00 0.00 39 1004.6
20260504212050 21 268 12.9 25.7 0.00 0.00 0.00 39 1004.5
20260504211555 21 231 14.5 29.0 0.00 0.00 0.00 37 1004.7
20260504211050 21 259 11.3 32.2 0.00 0.00 0.00 38 1004.7
20260504210550 21 243 14.5 32.2 0.00 0.00 0.00 37 1004.4
20260504210049 21 271 17.7 37.0 0.00 0.00 0.00 38 1004.6
20260504205548 21 243 20.9 43.5 0.00 0.00 0.00 37 1004.5
20260504205049 21 258 25.7 43.5 0.00 0.00 0.00 36 1004.4
20260504204603 21 252 17.7 33.8 0.00 0.00 0.00 37 1004.5
20260504204049 21 275 12.9 24.1 0.00 0.00 0.00 40 1004.5
20260504203548 20 281 11.3 30.6 0.00 0.00 0.00 38 1004.5
20260504203105 20 292 17.7 30.6 0.00 0.00 0.00 39 1004.6
20260504202547 21 229 16.1 33.8 0.00 0.00 0.00 38 1004.5
20260504202046 21 269 16.1 33.8 0.00 0.00 0.00 38 1004.5
20260504201608 20 283 12.9 41.8 0.00 0.00 0.00 38 1004.6
20260504201049 21 248 20.9 41.8 0.00 0.00 0.00 37 1004.7
20260504200548 21 261 20.9 41.8 0.00 0.00 0.00 37 1004.6
20260504200053 21 230 16.1 40.2 0.00 0.00 0.00 38 1004.5
20260504195547 21 302 19.3 40.2 0.00 0.00 0.00 39 1004.4
20260504195048 21 253 20.9 40.2 0.00 0.00 0.00 39 1004.6
20260504194554 21 279 17.7 40.2 0.00 0.00 0.00 39 1004.6
20260504194049 21 257 17.7 27.4 0.00 0.00 0.00 40 1004.6
20260504193550 21 273 12.9 25.7 0.00 0.00 0.00 39 1004.5
20260504193051 20 244 9.7 30.6 0.00 0.00 0.00 43 1004.6
20260504192547 20 336 11.3 30.6 0.00 0.00 0.00 38 1004.6
20260504192051 20 256 16.1 33.8 0.00 0.00 0.00 38 1004.9
20260504191559 20 292 14.5 33.8 0.00 0.00 0.00 39 1004.9
20260504191045 20 243 19.3 32.2 0.00 0.00 0.00 39 1005.0
20260504190549 19 238 16.1 29.0 0.00 0.00 0.00 39 1005.0
20260504190112 19 271 8.0 38.6 0.00 0.00 0.00 40 1005.1
20260504185551 19 303 17.7 38.6 0.00 0.00 0.00 39 1004.9
20260504185049 19 288 12.9 25.7 0.00 0.00 0.00 40 1005.0
20260504184603 19 244 14.5 37.0 0.00 0.00 0.00 39 1005.1
20260504184049 19 268 17.7 43.5 0.00 0.00 0.00 40 1005.1
20260504183549 20 257 24.1 43.5 0.00 0.00 0.00 39 1004.9
20260504183052 20 257 14.5 45.1 0.00 0.00 0.00 38 1005.2
20260504182548 20 231 19.3 45.1 0.00 0.00 0.00 40 1005.0
20260504182050 20 244 24.1 45.1 0.00 0.00 0.00 37 1004.9
20260504181556 20 246 25.7 45.1 0.00 0.00 0.00 37 1004.8
20260504181048 20 233 19.3 35.4 0.00 0.00 0.00 38 1004.9
20260504180550 20 318 19.3 37.0 0.00 0.00 0.00 40 1005.0
20260504180054 20 250 16.1 37.0 0.00 0.00 0.00 37 1005.0
20260504175545 20 250 19.3 33.8 0.00 0.00 0.00 37 1005.1
20260504175045 19 258 17.7 46.7 0.00 0.00 0.00 39 1005.0
20260504174553 19 257 24.1 46.7 0.00 0.00 0.00 37 1005.1
20260504174050 19 264 29.0 46.7 0.00 0.00 0.00 38 1005.1
20260504173549 20 179 32.2 45.1 0.00 0.00 0.00 37 1005.2
20260504173049 20 263 25.7 38.6 0.00 0.00 0.00 36 1005.0
20260504172548 20 242 22.5 38.6 0.00 0.00 0.00 37 1004.9
20260504172048 20 252 16.1 43.5 0.00 0.00 0.00 37 1004.9
20260504171557 19 263 22.5 43.5 0.00 0.00 0.00 41 1004.9
20260504171049 19 240 22.5 41.8 0.00 0.00 0.00 37 1004.9
20260504170549 19 255 25.7 49.9 0.00 0.00 0.00 37 1005.0
20260504160103 18 257 30.6 53.1 0.00 0.00 0.00 40 1005.5
20260504151045 17 240 17.7 35.4 0.00 0.00 0.00 48 1006.2
20260504150550 17 245 14.5 25.7 0.00 0.00 0.00 48 1006.0
20260504141048 14 254 9.7 27.4 0.00 0.00 0.00 54 1007.2
20260504140549 14 274 17.7 35.4 0.00 0.00 0.00 53 1007.4
20260504140106 14 271 14.5 35.4 0.00 0.00 0.00 55 1007.5
20260504130548 12 265 11.3 20.9 0.00 0.00 0.00 60 1007.9
20260504120108 9 255 9.7 17.7 0.00 0.00 0.00 67 1008.9
20260504110549 7 0 0.0 9.7 0.00 0.00 0.00 70 1009.0
20260504100549 4 0 0.0 0.0 0.00 0.00 0.00 76 1008.8
20260504081550 3 248 0.0 4.8 0.00 0.00 0.00 80 1008.6
20260504081048 3 242 1.6 4.8 0.00 0.00 0.00 82 1008.7
20260504080547 2 215 1.6 3.2 0.00 0.00 0.00 85 1008.7
20260504050547 0 0 0.0 0.0 0.00 0.00 0.00 87 1008.6
20260504045548 0 0 0.0 0.0 0.00 0.00 0.00 87 1008.7
20260504045049 0 0 0.0 0.0 0.00 0.00 0.00 87 1008.6
20260504044555 0 0 0.0 0.0 0.00 0.00 0.00 88 1008.6
20260504044046 0 0 0.0 0.0 0.00 0.00 0.00 88 1008.6
20260504043546 0 0 0.0 0.0 0.00 0.00 0.00 88 1008.7
20260504043054 0 0 0.0 0.0 0.00 0.00 0.00 89 1008.8
20260504042546 0 0 0.0 0.0 0.00 0.00 0.00 88 1008.5
20260504042047 0 0 0.0 0.0 0.00 0.00 0.00 88 1008.6
20260504041549 0 0 0.0 0.0 0.00 0.00 0.00 87 1008.5
20260504041048 1 0 0.0 0.0 0.00 0.00 0.00 87 1008.6
20260504040548 1 0 0.0 0.0 0.00 0.00 0.00 87 1008.6
20260504040053 1 0 0.0 0.0 0.00 0.00 0.00 87 1008.5
20260504035545 1 0 0.0 0.0 0.00 0.00 0.00 86 1008.4
20260504035047 1 0 0.0 0.0 0.00 0.00 0.00 86 1008.4
20260504034549 1 0 0.0 0.0 0.00 0.00 0.00 85 1008.3
20260504034050 1 0 0.0 0.0 0.00 0.00 0.00 84 1008.2
20260504033547 1 0 0.0 0.0 0.00 0.00 0.00 84 1008.1
20260504033104 1 0 0.0 0.0 0.00 0.00 0.00 84 1008.2
20260504032547 1 0 0.0 0.0 0.00 0.00 0.00 83 1008.0
20260504032049 2 0 0.0 0.0 0.00 0.00 0.00 82 1008.0
20260504031559 2 0 0.0 0.0 0.00 0.00 0.00 80 1008.0
20260504031050 2 0 0.0 0.0 0.00 0.00 0.00 83 1008.0
20260504030545 2 0 0.0 0.0 0.00 0.00 0.00 80 1008.0
20260504030052 2 0 0.0 1.6 0.00 0.00 0.00 79 1007.9
20260504025548 2 0 0.0 1.6 0.00 0.10 0.00 80 1007.9
20260504025046 2 0 0.0 0.0 0.00 0.10 0.00 80 1007.9
20260504024558 2 0 0.0 0.0 0.00 0.10 0.00 81 1008.0
20260504024048 2 0 0.0 0.0 0.00 0.10 0.00 81 1007.9
20260504023551 2 0 0.0 0.0 0.00 0.10 0.00 79 1007.9
20260504023052 2 0 0.0 0.0 0.00 0.10 0.00 78 1008.0
20260504022547 3 0 0.0 0.0 0.00 0.10 0.00 78 1008.0
20260504022047 2 0 0.0 0.0 0.00 0.10 0.00 79 1008.1
20260504021554 3 0 0.0 0.0 0.00 0.10 0.00 78 1007.9
20260504021047 3 0 0.0 0.0 0.00 0.10 0.00 77 1007.9
20260504020547 3 0 0.0 0.0 0.00 0.10 0.00 76 1007.9
20260504020054 3 0 0.0 0.0 0.00 0.10 0.00 75 1007.9
20260504015547 3 0 0.0 0.0 0.00 0.10 0.00 74 1007.9
20260504015047 3 0 0.0 0.0 0.00 0.10 0.00 74 1008.0